This demonstration page uses our WeatherBlox Daily Observations layout. Learn more.

Left ArrowRight Arrow

53.62937, 11.41316

Hourly Observations for January 7, 2022

Temp ( °F °C ) Dew Point ( °F °C ) Humidity (%) Winds ( mph kmh ) Pressure ( in mb ) Visibility ( mi km ) Precip ( " mm )
12:20 am 00:20 Cloudy 34 1 32 0 93 93 S 6 9 29.98 1015 30 48 N/A
12:50 am 00:50 Partly Cloudy 34 1 32 0 93 93 S 7 11 29.95 1014 30 48 N/A
1:20 am 01:20 Mostly Clear 34 1 32 0 93 93 SSW 5 7 29.95 1014 30 48 N/A
1:50 am 01:50 Mostly Clear 34 1 32 0 93 93 S 7 11 29.95 1014 30 48 N/A
2:20 am 02:20 Mostly Clear 34 1 32 0 93 93 S 5 7 29.92 1013 6 9 N/A
2:50 am 02:50 Mostly Clear 34 1 32 0 93 93 VRB 5 7 29.92 1013 30 48 N/A
3:20 am 03:20 Mostly Clear 34 1 32 0 93 93 S 6 9 29.89 1012 30 48 N/A
3:50 am 03:50 Mostly Clear 34 1 32 0 93 93 S 6 9 29.89 1012 30 48 N/A
4:20 am 04:20 Partly Cloudy 34 1 30 -1 87 87 VRB 6 9 29.89 1012 30 48 N/A
4:50 am 04:50 Mostly Cloudy 36 2 30 -1 81 81 S 7 11 29.86 1011 30 48 N/A
5:20 am 05:20 Partly Cloudy 36 2 30 -1 81 81 S 7 11 29.86 1011 30 48 N/A
5:50 am 05:50 Partly Cloudy 36 2 30 -1 81 81 VRB 6 9 29.86 1011 30 48 N/A
6:20 am 06:20 Mostly Clear 36 2 30 -1 81 81 S 7 11 29.83 1010 30 48 N/A
6:50 am 06:50 Mostly Clear 34 1 30 -1 87 87 SSW 6 9 29.83 1010 30 48 N/A
7:20 am 07:20 Partly Cloudy 34 1 32 0 93 93 S 7 11 29.83 1010 30 48 N/A
7:50 am 07:50 Mostly Cloudy with Light Rain/Snow 34 1 32 0 93 93 S 7 11 29.80 1009 30 48 N/A
8:20 am 08:20 Mostly Cloudy with Light Snow 34 1 32 0 93 93 VRB 7 11 29.80 1009 30 48 N/A
8:50 am 08:50 Mostly Cloudy with Light Rain/Snow 34 1 32 0 93 93 S 7 11 29.80 1009 3 5 N/A
9:20 am 09:20 Mostly Cloudy with Light Rain/Snow 34 1 32 0 93 93 S 6 9 29.80 1009 30 48 N/A
9:50 am 09:50 Cloudy with Light Rain 34 1 32 0 93 93 VRB 5 7 29.80 1009 30 48 N/A
10:20 am 10:20 Cloudy with Light Rain 34 1 32 0 93 93 SSW 7 11 29.80 1009 30 48 N/A
10:50 am 10:50 Mostly Cloudy with Snow 34 1 32 0 93 93 VRB 6 9 29.77 1008 1 2 N/A
11:20 am 11:20 Mostly Cloudy with Light Rain/Snow 34 1 32 0 93 93 VRB 6 9 29.77 1008 4 7 N/A
11:50 am 11:50 Mostly Cloudy with Light Rain/Snow 34 1 32 0 93 93 S 6 9 29.77 1008 2 4 N/A
12:20 pm 12:20 Mostly Cloudy with Light Rain 34 1 34 1 100 100 S 6 9 29.77 1008 6 9 N/A
12:50 pm 12:50 Mostly Cloudy 34 1 34 1 100 100 VRB 6 9 29.77 1008 4 6 N/A
1:20 pm 13:20 Mostly Cloudy with Light Snow 34 1 34 1 100 100 VRB 5 7 29.77 1008 2 4 N/A
1:50 pm 13:50 Mostly Cloudy with Drizzle 36 2 34 1 93 93 VRB 5 7 29.77 1008 3 5 N/A
2:20 pm 14:20 Cloudy with Mist and Fog 36 2 34 1 93 93 VRB 5 7 29.77 1008 3 5 N/A
2:50 pm 14:50 Mostly Cloudy 36 2 36 2 100 100 VRB 5 7 29.74 1007 4 6 N/A
3:20 pm 15:20 Mostly Cloudy with Mist and Fog 37 3 36 2 93 93 S 6 9 29.74 1007 3 5 N/A
3:50 pm 15:50 Mostly Cloudy with Mist and Fog 37 3 36 2 93 93 S 5 7 29.74 1007 3 5 N/A
4:20 pm 16:20 Mostly Cloudy 37 3 36 2 93 93 VRB 6 9 29.77 1008 4 6 N/A
4:50 pm 16:50 Mostly Cloudy 37 3 36 2 93 93 SSW 5 7 29.77 1008 4 6 N/A
5:20 pm 17:20 Mostly Cloudy 37 3 36 2 93 93 SSW 6 9 29.77 1008 4 6 N/A
5:50 pm 17:50 Cloudy 37 3 36 2 93 93 S 6 9 29.74 1007 4 6 N/A
6:20 pm 18:20 Mostly Cloudy 37 3 36 2 93 93 S 6 9 29.74 1007 4 7 N/A
6:50 pm 18:50 Mostly Cloudy 37 3 36 2 93 93 SSW 6 9 29.74 1007 30 48 N/A
7:20 pm 19:20 Mostly Cloudy 37 3 36 2 93 93 SSW 6 9 29.74 1007 30 48 N/A
7:50 pm 19:50 Cloudy 37 3 36 2 93 93 VRB 5 7 29.74 1007 30 48 N/A
8:20 pm 20:20 Mostly Cloudy 37 3 36 2 93 93 SSW 6 9 29.74 1007 30 48 N/A
8:50 pm 20:50 Mostly Cloudy 37 3 36 2 93 93 SSW 5 7 29.74 1007 30 48 N/A
9:20 pm 21:20 Mostly Cloudy 37 3 36 2 93 93 S 6 9 29.74 1007 30 48 N/A
9:50 pm 21:50 Mostly Cloudy 36 2 34 1 93 93 SSW 5 7 29.74 1007 30 48 N/A
10:20 pm 22:20 Mostly Cloudy 36 2 34 1 93 93 S 5 7 29.74 1007 30 48 N/A
10:50 pm 22:50 Mostly Cloudy 36 2 34 1 93 93 S 5 7 29.74 1007 30 48 N/A
11:20 pm 23:20 Mostly Cloudy 36 2 34 1 93 93 VRB 3 6 29.74 1007 30 48 N/A
11:50 pm 23:50 Partly Cloudy 36 2 34 1 93 93 S 5 7 29.74 1007 30 48 N/A

Powered by AerisWeather